0 HST 1 20580U 90037B 26238.53760525 .00006459 00000-0 19896-3 0 9998 2 20580 28.4735 319.4920 0001801 192.3705 167.6847 15.31466992799360 0 ISS (ZARYA) 1 25544U 98067A 26238.49891027 .00008646 00000-0 16123-3 0 9991 2 25544 51.6328 312.0820 0007754 85.9348 274.2526 15.49640156582658 0 CXO 1 25867U 99040B 26240.77966955 .00001030 00000-0 00000+0 0 9991 2 25867 57.1441 114.7944 7726724 309.5210 0.7071 0.37801396 17591